SCP
-0 0 0 0 -0 -0 -0 -0 -0 -0 0 0 -0 0 -0 -0 0 0 0 -0 0 0 0 0 0 0 0 0 0 0 0 0 0 0 0 0 0 0 0 0 0 0 0 0
-0 0 0 0 -0 -0 -0 0 -0 0 0 -0 0 0 -0 -0 -0 0 0 0 0 0 0 0 0 0 0 0 0 0 0 0 0 0 0 0 0 0 0 0 0 0 0 0
-0 -0 0 -0 -0 0 0 -0 -0 -0 -0 -0 0 0 0 0 0 0 0 0 0 0 -0 0 0 0 0 0 0 0 0 0 0 0 0 0 0 0 0 0 0 0 0 0
-0 -0 -0 -0 -0 0 0 0 -0 -0 -0 -0 -0 0 0 0 0 0 0 0 0 0 0 0 0 0 0 0 0 0 0 0 0 0 0 0 0 0 0 0 0 0 0 0
-0 -0 0 -0 0 -0 -0 0 0 0 0 0 -0 0 0 0 0 0 0 0 0 0 0 0 0 0 0 0 0 0 0 0 0 0 0 0 0 0 0 0 0 0 0 0
0 -0 0 -0 0 -0 0 0 0 0 0 0 0 -0 0 -0 0 0 0 0 0 0 0 0 0 0 0 0 0 0 0 0 0 0 0 0 0 0 0 0 0 0 0 0
-0 -0 0 0 -0 0 -0 -0 0 0 0 0 0 0 0 0 0 0 0 0 0 0 0 0 0 0 0 0 0 0 0 0 0 0 0 0 0 0 0 0 0 0 0 0
-0 0 0 0 -0 -0 0 0 0 0 -0 0 0 0 0 0 0 0 0 0 0 0 0 0 0 0 0 0 0 0 0 0 0 0 0 0 0 0 0 0 0 0 0 0
-0 0 0 -0 -0 0 0 0 0 0 0 0 0 0 0 -0 0 0 0 0 0 0 0 0 0 0 0 0 0 0 0 0 0 0 0 0 0 0 0 0 0 0 0 0
-0 0 0 -0 -0 -0 0 0 0 0 0 0 -0 0 0 -0 0 0 0 0 0 0 0 0 0 0 0 0 0 0 0 0 0 0 0 0 0 0 0 0 0 0 0 0
0 0 0 0 0 -0 0 -0 0 0 0 0 0 0 0 0 0 0 0 0 0 0 0 0 1 1 0 0 0 0 0 0 0 0 0 0 0 0 0 0 0 0 0 0
0 0 0 0 0 0 0 0 0 0 0 0 0 0 0 1 0 0 0 0 0 0 0 0 1 1 1 0 0 0 0 0 0 0 0 0 0 0 0 0 0 0 0 0
0 0 0 0 -0 0 0 0 0 0 0 0 0 0 0 1 0 0 -0 -0 0 0 0 0 0 0 1 1 1 0 0 0 0 0 0 0 0 0 0 0 0 0 0 0
0 0 0 0 0 -0 0 0 0 0 0 -0 0 0 0 0 0 0 0 0 -0 0 0 0 0 1 1 1 1 1 0 0 0 0 0 0 0 0 0 0 0 0 0 0
0 0 -0 -0 -0 -0 0 -0 0 0 0 0 0 0 0 -0 0 0 0 0 0 0 0 0 1 1 1 1 1 1 0 0 0 0 0 0 0 0 0 0 0 0 0 0
0 0 -0 -0 -0 0 0 0 -0 0 0 0 0 0 0 0 0 0 0 0 0 0 0 0 0 1 1 1 1 1 1 0 0 0 0 0 0 0 0 0 0 0 0 0
0 0 -0 -0 0 0 0 -0 -0 0 0 0 0 0 0 0 0 0 0 0 0 0 0 0 0 1 3 3 2 1 1 0 0 0 0 0 0 0 0 0 0 0 0 0
0 0 0 -0 0 -0 0 0 0 0 0 0 0 0 0 0 0 0 0 0 0 0 0 0 1 2 2 2 1 1 0 0 0 0 0 0 0 0 0 0 0 0 1 1
0 0 0 -0 0 0 0 0 0 0 0 1 0 0 0 0 0 0 0 0 0 0 0 0 1 1 1 1 1 1 0 0 0 0 0 0 0 0 0 0 0 1 1 1
0 1 0 0 0 0 -0 0 -0 -0 0 0 0 0 0 0 0 0 0 0 0 0 0 0 0 1 1 1 1 0 0 0 0 0 0 0 0 0 0 0 1 1 1 1
0 0 0 0 0 0 0 0 0 1 0 0 0 0 0 1 0 0 0 0 0 0 0 0 1 1 1 1 0 0 0 0 0 0 0 0 0 1 1 1 1 1 1 1
0 0 0 0 0 -0 0 0 1 0 0 0 0 1 0 1 0 0 1 1 0 0 0 0 1 1 1 1 0 0 0 0 0 0 0 0 0 1 0 1 1 1 1 1
0 1 1 0 1 1 0 0 0 0 0 1 1 1 0 0 0 0 1 1 1 0 0 0 1 1 1 0 0 0 0 0 0 1 1 1 1 1 1 1 1 1 0 0
0 0 0 1 0 0 -0 -0 -0 0 1 1 0 0 0 0 0 0 0 1 2 1 0 0 0 1 1 0 1 0 0 1 1 1 1 1 1 1 1 0 1 0 0 1
0 0 0 0 0 0 0 0 -0 0 0 0 0 0 0 0 0 0 1 1 1 1 1 1 1 1 1 1 1 0 1 1 1 1 1 1 1 1 1 1 0 0 0 0
0 0 0 1 1 2 -0 0 -0 1 0 0 1 0 0 0 0 0 1 2 2 2 3 3 2 2 1 1 0 0 0 0 0 0 0 0 0 0 0 0 0 0 0 0
Wind_Speed_500mb
36 20 21 26 47 34 29 34 30 19 9 7 16 21 40 45 34 26 24 39 24 23 39 30 22 11 5 1 11 16 18 16 15 7 9 8 8 13 11 18 20 24 28 31
27 13 10 19 17 22 35 13 15 15 1 7 11 7 40 46 35 29 26 21 21 31 34 28 19 17 9 10 4 14 16 16 8 4 14 10 18 9 16 21 17 27 30 29
21 27 18 21 20 24 15 27 32 21 15 15 21 31 24 31 36 32 30 32 21 35 39 36 28 23 15 12 7 13 15 14 16 14 7 12 9 16 15 14 21 18 26 29
16 32 10 23 26 15 1 16 26 31 34 20 45 10 26 25 20 29 32 32 36 36 33 33 32 26 18 13 14 11 14 7 14 5 5 18 12 10 16 9 20 20 24 20
28 21 12 26 2 21 24 20 23 36 21 12 31 15 20 22 26 32 38 32 29 29 39 41 37 34 25 23 10 18 16 10 10 6 3 7 2 1 8 19 12 16 18 27
28 12 13 26 18 15 17 13 10 11 7 10 36 24 12 20 7 6 44 36 31 25 30 33 37 36 26 23 18 17 9 13 8 4 6 7 6 10 10 18 18 12 15 21
33 28 14 7 30 17 39 34 5 6 10 8 4 18 17 21 17 5 2 41 34 23 31 37 35 36 34 27 22 16 15 10 10 3 5 8 6 13 14 10 12 9 13 21
20 10 22 14 29 18 13 3 12 17 21 15 11 8 8 8 11 8 3 2 42 35 28 38 36 37 33 33 26 22 23 11 15 8 9 9 11 1 4 16 14 2 12 19
30 11 26 23 28 10 3 5 18 22 28 25 4 15 12 28 17 16 5 5 16 35 24 33 42 39 31 34 27 25 19 15 20 14 15 9 9 15 9 19 17 16 12 18
28 6 28 32 28 27 24 19 23 9 5 18 27 15 9 25 17 10 13 10 10 23 19 17 52 41 32 30 26 25 22 19 19 15 15 11 14 11 14 14 22 25 23 21
20 14 3 12 10 24 23 27 13 5 3 10 15 18 11 33 22 27 15 14 17 23 23 30 38 40 36 30 26 28 23 22 20 20 18 20 21 15 18 19 15 28 28 22
18 8 22 28 7 15 7 27 14 5 13 24 28 3 14 3 26 27 51 6 14 17 19 28 39 41 37 32 29 32 25 18 16 19 18 20 23 19 21 22 23 24 27 26
13 9 16 27 32 19 12 35 7 11 11 23 24 5 15 19 47 45 66 83 8 7 7 10 31 36 34 32 31 26 24 16 15 19 20 22 25 24 25 28 27 29 25 26
9 13 17 23 32 29 14 26 18 15 8 36 21 26 28 28 26 56 36 45 15 17 16 17 16 31 35 35 34 29 21 15 16 18 18 18 21 25 29 31 31 31 26 28
2 11 23 33 37 43 21 37 35 32 33 28 26 31 31 23 24 34 52 34 16 11 10 12 16 16 29 33 29 24 21 17 18 18 18 19 22 26 26 28 29 32 28 28
12 12 22 30 34 21 21 39 42 15 21 26 28 26 27 20 10 16 74 11 43 57 41 6 11 19 22 25 23 22 21 19 18 18 19 18 20 22 26 29 33 31 29 31
14 12 18 28 11 22 18 29 19 18 21 20 21 27 33 28 42 42 42 39 36 36 34 37 13 11 21 14 21 18 17 16 20 18 18 20 22 24 28 30 31 34 35 39
13 12 17 22 29 29 9 14 20 18 22 26 19 24 27 38 36 35 36 29 30 28 28 27 17 17 10 13 8 13 14 16 16 18 17 21 23 26 28 32 38 38 42 45
19 15 19 19 18 15 36 13 7 5 6 22 21 22 25 23 19 24 25 21 18 21 20 15 16 10 9 8 12 11 10 11 14 18 20 21 24 27 29 35 41 48 50 51
11 11 16 22 28 32 45 36 72 95 7 10 11 16 21 22 9 15 16 13 14 14 15 15 13 9 11 12 11 7 7 11 15 18 20 22 25 31 38 41 45 47 51 58
6 6 32 15 21 18 21 18 22 7 12 10 8 14 16 16 19 17 11 10 12 12 13 12 11 11 13 11 6 1 7 11 16 19 21 23 27 35 43 44 52 58 65 72
17 14 6 9 13 18 15 9 16 26 31 4 10 16 11 17 12 7 11 6 3 4 7 8 10 8 10 8 6 1 6 13 16 20 24 30 34 40 45 54 61 62 69 75
24 20 21 13 9 33 25 53 29 21 9 6 13 12 12 12 15 2 9 11 7 5 1 2 4 3 3 4 3 2 9 14 19 27 30 35 40 43 50 57 63 68 68 66
33 17 6 28 17 36 42 35 38 23 11 14 11 13 19 20 18 22 27 11 9 7 4 4 4 1 3 2 8 26 24 18 28 40 32 37 46 47 52 53 54 56 55 58
12 21 16 18 24 31 59 59 80 28 15 20 16 18 24 25 28 29 32 19 5 2 2 2 6 6 7 6 27 15 20 25 31 31 35 35 38 45 50 48 51 54 53 57
40 9 6 9 16 15 24 11 52 27 23 24 24 22 18 18 16 17 19 17 17 16 11 12 7 6 15 19 9 20 22 23 25 29 35 38 40 43 48 47 52 52 51 57
Wind_Direction_500mb
236 184 254 166 208 257 47 46 357 324 98 286 274 154 168 181 203 204 178 183 196 196 162 163 159 175 244 132 345 6 359 43 73 12 40 39 45 15 24 353 357 353 8 360
278 269 265 345 326 335 20 54 224 250 238 296 251 221 161 169 192 201 194 222 203 168 157 163 169 178 199 244 326 335 3 13 85 46 3 30 29 35 21 357 355 353 358 4
303 283 32 306 307 15 324 323 321 352 326 213 263 257 166 162 181 199 205 195 223 173 171 173 184 193 203 225 248 302 345 13 27 80 346 75 39 10 354 15 325 2 348 360
264 287 356 289 41 152 16 258 304 354 343 30 339 327 156 161 181 193 207 207 199 184 188 181 178 183 183 221 241 276 318 46 336 89 31 55 38 1 360 355 342 5 340 352
287 302 341 334 187 315 327 2 53 4 2 68 288 293 124 154 197 205 202 208 207 185 184 177 188 182 180 198 223 228 311 342 342 9 65 95 256 237 346 339 17 358 354 339
273 294 294 305 315 303 326 79 74 300 304 61 256 240 134 200 148 308 186 190 201 180 198 173 183 164 161 181 192 226 280 303 328 349 322 351 359 353 54 14 8 342 353 333
256 258 240 324 286 36 306 345 336 268 224 188 297 289 84 60 53 51 119 174 176 174 180 169 162 163 161 191 185 218 238 265 284 274 258 289 331 29 25 326 290 1 337 333
276 249 309 301 272 306 40 311 27 301 336 328 75 87 118 70 82 65 8 240 172 178 194 173 176 173 171 187 188 194 241 247 253 239 243 272 310 39 320 280 313 342 340 314
275 31 315 277 262 290 315 275 297 311 328 303 220 156 339 318 144 110 147 187 182 180 191 163 176 174 171 183 190 200 207 227 234 234 257 279 291 314 312 311 339 313 305 307
263 209 218 272 316 264 257 5 334 77 31 341 319 44 180 266 63 95 146 177 211 161 171 209 167 168 167 180 197 202 214 223 246 249 256 274 257 302 293 310 312 318 320 310
251 271 244 162 223 3 32 287 57 73 281 249 315 33 36 18 76 16 335 179 186 191 210 196 162 167 165 178 193 211 203 209 237 244 237 240 263 262 281 290 299 305 319 315
242 289 288 289 216 206 220 336 36 273 313 318 303 328 323 102 73 129 266 237 210 215 204 165 168 171 171 182 194 219 203 216 239 249 253 256 265 270 273 283 289 292 306 310
349 260 270 273 269 74 294 287 198 131 84 246 251 350 247 76 42 2 338 318 218 202 178 168 160 169 185 186 200 216 230 219 221 242 254 268 275 283 286 287 291 289 294 301
5 300 294 283 303 290 223 261 250 214 192 261 322 323 75 82 93 126 225 276 269 168 167 205 197 186 192 195 204 208 229 226 245 250 246 251 263 269 277 279 280 290 299 298
245 279 279 281 281 288 195 258 234 234 234 257 335 341 120 150 182 222 240 300 213 132 149 177 196 208 190 196 194 210 223 233 241 252 255 262 272 286 287 292 290 293 289 296
168 273 287 288 287 351 332 320 299 351 357 335 342 333 27 172 26 40 75 31 358 16 12 15 217 202 183 193 186 213 220 238 257 255 263 270 277 277 280 284 293 302 306 302
231 260 285 291 340 295 261 244 274 15 354 341 335 2 32 33 61 57 64 45 34 25 5 1 16 163 174 178 196 202 231 239 250 264 276 282 284 286 285 288 290 293 295 296
296 249 275 283 288 283 294 91 82 46 335 354 349 354 8 90 82 59 28 30 25 23 16 9 49 96 128 152 188 207 226 251 257 274 281 285 284 284 285 284 286 291 294 299
209 258 277 274 271 281 292 43 268 174 344 46 30 1 352 13 91 55 61 49 37 43 41 37 55 94 159 154 183 202 228 261 273 281 284 287 286 289 288 287 293 293 294 301
236 194 263 270 291 302 0 45 36 336 206 26 333 11 12 345 33 78 79 82 77 72 80 95 114 126 141 149 178 198 259 280 279 285 290 287 285 282 286 288 296 306 302 302
58 316 256 260 271 257 36 118 123 52 328 186 43 27 28 55 76 119 108 91 106 107 105 118 126 140 150 156 149 265 307 309 301 292 290 288 286 287 292 307 314 307 309 309
238 254 200 111 246 254 7 329 115 236 268 49 60 74 19 104 125 153 120 119 104 104 103 127 143 156 148 141 132 92 327 314 307 305 307 300 297 297 297 299 304 303 303 304
334 27 334 315 269 204 231 230 226 240 264 34 72 47 43 26 10 179 186 170 191 192 355 266 175 163 133 126 147 320 323 309 312 299 304 313 311 304 300 299 302 306 311 310
249 64 357 332 113 182 198 216 224 171 146 108 94 70 54 39 17 359 360 187 184 198 159 269 319 258 324 11 62 335 313 300 296 311 318 312 310 316 311 316 320 319 323 326
261 141 182 232 287 314 49 55 341 85 134 121 102 74 47 34 19 11 9 19 102 118 182 135 354 10 35 73 326 358 314 314 332 330 334 332 328 326 333 333 332 333 329 328
311 17 303 341 10 29 149 222 197 119 95 84 72 61 60 59 51 36 46 34 41 73 91 111 84 29 7 9 19 349 340 331 332 331 333 336 331 330 331 339 339 337 345 345
Wind_Speed_850mb
36 20 21 26 47 34 29 34 30 19 9 7 16 21 40 45 34 26 24 39 24 23 39 30 22 11 5 1 11 16 18 16 15 7 9 8 8 13 11 18 20 24 28 31
27 13 10 19 17 22 35 13 15 15 1 7 11 7 40 46 35 29 26 21 21 31 34 28 19 17 9 10 4 14 16 16 8 4 14 10 18 9 16 21 17 27 30 29
21 27 18 21 20 24 15 27 32 21 15 15 21 31 24 31 36 32 30 32 21 35 39 36 28 23 15 12 7 13 15 14 16 14 7 12 9 16 15 14 21 18 26 29
16 32 10 23 26 15 1 16 26 31 34 20 45 10 26 25 20 29 32 32 36 36 33 33 32 26 18 13 14 11 14 7 14 5 5 18 12 10 16 9 20 20 24 20
28 21 12 26 2 21 24 20 23 36 21 12 31 15 20 22 26 32 38 32 29 29 39 41 37 34 25 23 10 18 16 10 10 6 3 7 2 1 8 19 12 16 18 27
28 12 13 26 18 15 17 13 10 11 7 10 36 24 12 20 7 6 44 36 31 25 30 33 37 36 26 23 18 17 9 13 8 4 6 7 6 10 10 18 18 12 15 21
33 28 14 7 30 17 39 34 5 6 10 8 4 18 17 21 17 5 2 41 34 23 31 37 35 36 34 27 22 16 15 10 10 3 5 8 6 13 14 10 12 9 13 21
20 10 22 14 29 18 13 3 12 17 21 15 11 8 8 8 11 8 3 2 42 35 28 38 36 37 33 33 26 22 23 11 15 8 9 9 11 1 4 16 14 2 12 19
30 11 26 23 28 10 3 5 18 22 28 25 4 15 12 28 17 16 5 5 16 35 24 33 42 39 31 34 27 25 19 15 20 14 15 9 9 15 9 19 17 16 12 18
28 6 28 32 28 27 24 19 23 9 5 18 27 15 9 25 17 10 13 10 10 23 19 17 52 41 32 30 26 25 22 19 19 15 15 11 14 11 14 14 22 25 23 21
20 14 3 12 10 24 23 27 13 5 3 10 15 18 11 33 22 27 15 14 17 23 23 30 38 40 36 30 26 28 23 22 20 20 18 20 21 15 18 19 15 28 28 22
18 8 22 28 7 15 7 27 14 5 13 24 28 3 14 3 26 27 51 6 14 17 19 28 39 41 37 32 29 32 25 18 16 19 18 20 23 19 21 22 23 24 27 26
13 9 16 27 32 19 12 35 7 11 11 23 24 5 15 19 47 45 66 83 8 7 7 10 31 36 34 32 31 26 24 16 15 19 20 22 25 24 25 28 27 29 25 26
9 13 17 23 32 29 14 26 18 15 8 36 21 26 28 28 26 56 36 45 15 17 16 17 16 31 35 35 34 29 21 15 16 18 18 18 21 25 29 31 31 31 26 28
2 11 23 33 37 43 21 37 35 32 33 28 26 31 31 23 24 34 52 34 16 11 10 12 16 16 29 33 29 24 21 17 18 18 18 19 22 26 26 28 29 32 28 28
12 12 22 30 34 21 21 39 42 15 21 26 28 26 27 20 10 16 74 11 43 57 41 6 11 19 22 25 23 22 21 19 18 18 19 18 20 22 26 29 33 31 29 31
14 12 18 28 11 22 18 29 19 18 21 20 21 27 33 28 42 42 42 39 36 36 34 37 13 11 21 14 21 18 17 16 20 18 18 20 22 24 28 30 31 34 35 39
13 12 17 22 29 29 9 14 20 18 22 26 19 24 27 38 36 35 36 29 30 28 28 27 17 17 10 13 8 13 14 16 16 18 17 21 23 26 28 32 38 38 42 45
19 15 19 19 18 15 36 13 7 5 6 22 21 22 25 23 19 24 25 21 18 21 20 15 16 10 9 8 12 11 10 11 14 18 20 21 24 27 29 35 41 48 50 51
11 11 16 22 28 32 45 36 72 95 7 10 11 16 21 22 9 15 16 13 14 14 15 15 13 9 11 12 11 7 7 11 15 18 20 22 25 31 38 41 45 47 51 58
6 6 32 15 21 18 21 18 22 7 12 10 8 14 16 16 19 17 11 10 12 12 13 12 11 11 13 11 6 1 7 11 16 19 21 23 27 35 43 44 52 58 65 72
17 14 6 9 13 18 15 9 16 26 31 4 10 16 11 17 12 7 11 6 3 4 7 8 10 8 10 8 6 1 6 13 16 20 24 30 34 40 45 54 61 62 69 75
24 20 21 13 9 33 25 53 29 21 9 6 13 12 12 12 15 2 9 11 7 5 1 2 4 3 3 4 3 2 9 14 19 27 30 35 40 43 50 57 63 68 68 66
33 17 6 28 17 36 42 35 38 23 11 14 11 13 19 20 18 22 27 11 9 7 4 4 4 1 3 2 8 26 24 18 28 40 32 37 46 47 52 53 54 56 55 58
12 21 16 18 24 31 59 59 80 28 15 20 16 18 24 25 28 29 32 19 5 2 2 2 6 6 7 6 27 15 20 25 31 31 35 35 38 45 50 48 51 54 53 57
40 9 6 9 16 15 24 11 52 27 23 24 24 22 18 18 16 17 19 17 17 16 11 12 7 6 15 19 9 20 22 23 25 29 35 38 40 43 48 47 52 52 51 57
Wind_Direction_850mb
236 184 254 166 208 257 47 46 357 324 98 286 274 154 168 181 203 204 178 183 196 196 162 163 159 175 244 132 345 6 359 43 73 12 40 39 45 15 24 353 357 353 8 360
278 269 265 345 326 335 20 54 224 250 238 296 251 221 161 169 192 201 194 222 203 168 157 163 169 178 199 244 326 335 3 13 85 46 3 30 29 35 21 357 355 353 358 4
303 283 32 306 307 15 324 323 321 352 326 213 263 257 166 162 181 199 205 195 223 173 171 173 184 193 203 225 248 302 345 13 27 80 346 75 39 10 354 15 325 2 348 360
264 287 356 289 41 152 16 258 304 354 343 30 339 327 156 161 181 193 207 207 199 184 188 181 178 183 183 221 241 276 318 46 336 89 31 55 38 1 360 355 342 5 340 352
287 302 341 334 187 315 327 2 53 4 2 68 288 293 124 154 197 205 202 208 207 185 184 177 188 182 180 198 223 228 311 342 342 9 65 95 256 237 346 339 17 358 354 339
273 294 294 305 315 303 326 79 74 300 304 61 256 240 134 200 148 308 186 190 201 180 198 173 183 164 161 181 192 226 280 303 328 349 322 351 359 353 54 14 8 342 353 333
256 258 240 324 286 36 306 345 336 268 224 188 297 289 84 60 53 51 119 174 176 174 180 169 162 163 161 191 185 218 238 265 284 274 258 289 331 29 25 326 290 1 337 333
276 249 309 301 272 306 40 311 27 301 336 328 75 87 118 70 82 65 8 240 172 178 194 173 176 173 171 187 188 194 241 247 253 239 243 272 310 39 320 280 313 342 340 314
275 31 315 277 262 290 315 275 297 311 328 303 220 156 339 318 144 110 147 187 182 180 191 163 176 174 171 183 190 200 207 227 234 234 257 279 291 314 312 311 339 313 305 307
263 209 218 272 316 264 257 5 334 77 31 341 319 44 180 266 63 95 146 177 211 161 171 209 167 168 167 180 197 202 214 223 246 249 256 274 257 302 293 310 312 318 320 310
251 271 244 162 223 3 32 287 57 73 281 249 315 33 36 18 76 16 335 179 186 191 210 196 162 167 165 178 193 211 203 209 237 244 237 240 263 262 281 290 299 305 319 315
242 289 288 289 216 206 220 336 36 273 313 318 303 328 323 102 73 129 266 237 210 215 204 165 168 171 171 182 194 219 203 216 239 249 253 256 265 270 273 283 289 292 306 310
349 260 270 273 269 74 294 287 198 131 84 246 251 350 247 76 42 2 338 318 218 202 178 168 160 169 185 186 200 216 230 219 221 242 254 268 275 283 286 287 291 289 294 301
5 300 294 283 303 290 223 261 250 214 192 261 322 323 75 82 93 126 225 276 269 168 167 205 197 186 192 195 204 208 229 226 245 250 246 251 263 269 277 279 280 290 299 298
245 279 279 281 281 288 195 258 234 234 234 257 335 341 120 150 182 222 240 300 213 132 149 177 196 208 190 196 194 210 223 233 241 252 255 262 272 286 287 292 290 293 289 296
168 273 287 288 287 351 332 320 299 351 357 335 342 333 27 172 26 40 75 31 358 16 12 15 217 202 183 193 186 213 220 238 257 255 263 270 277 277 280 284 293 302 306 302
231 260 285 291 340 295 261 244 274 15 354 341 335 2 32 33 61 57 64 45 34 25 5 1 16 163 174 178 196 202 231 239 250 264 276 282 284 286 285 288 290 293 295 296
296 249 275 283 288 283 294 91 82 46 335 354 349 354 8 90 82 59 28 30 25 23 16 9 49 96 128 152 188 207 226 251 257 274 281 285 284 284 285 284 286 291 294 299
209 258 277 274 271 281 292 43 268 174 344 46 30 1 352 13 91 55 61 49 37 43 41 37 55 94 159 154 183 202 228 261 273 281 284 287 286 289 288 287 293 293 294 301
236 194 263 270 291 302 0 45 36 336 206 26 333 11 12 345 33 78 79 82 77 72 80 95 114 126 141 149 178 198 259 280 279 285 290 287 285 282 286 288 296 306 302 302
58 316 256 260 271 257 36 118 123 52 328 186 43 27 28 55 76 119 108 91 106 107 105 118 126 140 150 156 149 265 307 309 301 292 290 288 286 287 292 307 314 307 309 309
238 254 200 111 246 254 7 329 115 236 268 49 60 74 19 104 125 153 120 119 104 104 103 127 143 156 148 141 132 92 327 314 307 305 307 300 297 297 297 299 304 303 303 304
334 27 334 315 269 204 231 230 226 240 264 34 72 47 43 26 10 179 186 170 191 192 355 266 175 163 133 126 147 320 323 309 312 299 304 313 311 304 300 299 302 306 311 310
249 64 357 332 113 182 198 216 224 171 146 108 94 70 54 39 17 359 360 187 184 198 159 269 319 258 324 11 62 335 313 300 296 311 318 312 310 316 311 316 320 319 323 326
261 141 182 232 287 314 49 55 341 85 134 121 102 74 47 34 19 11 9 19 102 118 182 135 354 10 35 73 326 358 314 314 332 330 334 332 328 326 333 333 332 333 329 328
311 17 303 341 10 29 149 222 197 119 95 84 72 61 60 59 51 36 46 34 41 73 91 111 84 29 7 9 19 349 340 331 332 331 333 336 331 330 331 339 339 337 345 345